Location: Igon
(43.1667°N, 0.2333°W)
Time: 05:34:14
(UTC+00:00)

NOAA 16 DEB - Pass Details

Date: 18 June 2021
Orbit: 682 x 809 km, 98.9° (Epoch: 03 August)

Event Time Altitude Azimuth Distance (km) Brightness Sun altitude
Rises 02:39:50 0° 125° (SE) 3,311 ? -14.2°
Reaches altitude 10° 02:42:38 10° 110° (ESE) 2,392 ? -13.9°
Maximum altitude 02:46:35 22° 62° (ENE) 1,723 ? -13.4°
Drops below altitude 10° 02:50:32 10° 14° (NNE) 2,403 ? -13.0°
Sets 02:53:21 0° 359° (N) 3,331 ? -12.7°
